{"data":{"norad_id":38782,"intl_designator":"2012-052A","name":"VRSS-1","alt_names":[],"object_type":"PAYLOAD","status":"ACTIVE","operator":null,"country":"VENZ","launch_date":"2012-09-29","launch_site_code":"JSC","launch_vehicle":null,"mission":null,"orbit_class":"UNKNOWN","rcs_meters":2.365,"size_class":null,"mass_kg":null,"dimensions":null,"purposes":[],"wikipedia_slug":null,"has_3d_model":false,"image_url":null,"decayed_at":null,"tle_current":{"epoch":"2026-09-20T04:51:57.521376Z","epoch_age_seconds":36946,"freshness":"FRESH","line1":"1 38782U 12052A   26263.20274909  .00000290  00000+0  44586-4 0  9991","line2":"2 38782  97.6280 234.7339 0016301 289.1116  70.8332 14.80162583753660","mean_motion":14.80162583,"eccentricity":0.0016301,"inclination_deg":97.628,"raan_deg":234.7339,"arg_perigee_deg":289.1116,"mean_anomaly_deg":70.8332,"bstar":4.4586e-5,"rev_number":75366,"period_min":97.286610034514,"perigee_km":617.38896030028,"apogee_km":640.23301212493,"semimajor_km":7006.9479862126,"source":"CELESTRAK","updated_at":"2026-09-20T09:00:13.865953Z"}}}